CSN3820 ZSHC-ZGGG

Flight info

Callsign CSN3820
Flight time 1h 31m
Altitude 27600
Route ELNEX5E ELNEX A599 PLT W19 OLPAB OLPAB4
Aircraft A320/M-SDE3FGHIRWY/LB1

Departure

Time 2026-05-08 10:02
Airport Hangzhou Xiaoshan International Airport (ZSHC)

Arrival

Time 2026-05-08 11:33
Airport Guangzhou Baiyun International Airport (ZGGG)
Time Latitude Longitude Altitude Speed Heading
2026-05-08 09:53 30.23336 120.43136 27 ft 0 kts 63°
2026-05-08 09:54 30.23336 120.43135 27 ft 1 kts 63°
2026-05-08 09:55 30.23325 120.43110 32 ft 4 kts 68°
2026-05-08 09:55 30.23317 120.43081 32 ft 4 kts 89°
2026-05-08 09:55 30.23323 120.43057 32 ft 3 kts 149°
2026-05-08 09:55 30.23325 120.43055 32 ft 0 kts 152°
2026-05-08 09:57 30.23323 120.43057 32 ft 1 kts 153°
2026-05-08 09:57 30.23269 120.43088 31 ft 15 kts 153°
2026-05-08 09:57 30.23169 120.43148 31 ft 17 kts 153°
2026-05-08 09:58 30.23090 120.43115 32 ft 14 kts 240°
2026-05-08 09:58 30.23043 120.43011 32 ft 16 kts 243°
2026-05-08 09:58 30.22990 120.42890 32 ft 18 kts 244°
2026-05-08 09:58 30.22930 120.42754 31 ft 20 kts 242°
2026-05-08 09:59 30.22863 120.42600 32 ft 23 kts 243°
2026-05-08 09:59 30.22794 120.42445 32 ft 14 kts 243°
2026-05-08 09:59 30.22746 120.42338 32 ft 16 kts 243°
2026-05-08 09:59 30.22690 120.42214 32 ft 18 kts 243°
2026-05-08 10:00 30.22628 120.42075 30 ft 21 kts 243°
2026-05-08 10:00 30.22558 120.41919 32 ft 23 kts 243°
2026-05-08 10:00 30.22480 120.41746 32 ft 25 kts 243°
2026-05-08 10:00 30.22380 120.41700 32 ft 16 kts 157°
2026-05-08 10:01 30.22271 120.41759 30 ft 19 kts 152°
2026-05-08 10:01 30.22227 120.41810 30 ft 7 kts 63°
2026-05-08 10:01 30.22259 120.41879 30 ft 24 kts 62°
2026-05-08 10:01 30.22451 120.42313 33 ft 93 kts 63°
2026-05-08 10:02 30.22833 120.43176 34 ft 145 kts 63°
2026-05-08 10:02 30.23347 120.44324 291 ft 166 kts 63°
2026-05-08 10:02 30.23863 120.45512 955 ft 164 kts 66°
2026-05-08 10:02 30.24010 120.46813 1391 ft 176 kts 96°
2026-05-08 10:03 30.23840 120.48305 1700 ft 198 kts 96°
2026-05-08 10:03 30.23655 120.49962 2096 ft 218 kts 96°
2026-05-08 10:03 30.23455 120.51800 2508 ft 242 kts 96°
2026-05-08 10:03 30.23242 120.53768 3315 ft 249 kts 95°
2026-05-08 10:04 30.22976 120.55750 4301 ft 251 kts 105°
2026-05-08 10:04 30.22139 120.57507 5205 ft 259 kts 130°
2026-05-08 10:04 30.20648 120.58729 6053 ft 269 kts 150°
2026-05-08 10:04 30.18962 120.59714 6879 ft 275 kts 152°
2026-05-08 10:05 30.17103 120.60307 7631 ft 285 kts 177°
2026-05-08 10:05 30.15143 120.59890 8386 ft 292 kts 205°
2026-05-08 10:05 30.13515 120.58490 9166 ft 295 kts 233°
2026-05-08 10:05 30.12446 120.56465 9751 ft 297 kts 244°
2026-05-08 10:06 30.11502 120.54357 10579 ft 295 kts 245°
2026-05-08 10:06 30.10596 120.52272 11392 ft 295 kts 245°
2026-05-08 10:06 30.09677 120.50151 12192 ft 295 kts 245°
2026-05-08 10:06 30.08751 120.48031 12997 ft 296 kts 245°
2026-05-08 10:07 30.07817 120.45907 13786 ft 297 kts 245°
2026-05-08 10:07 30.06877 120.43780 14511 ft 298 kts 245°
2026-05-08 10:07 30.05933 120.41656 15227 ft 297 kts 245°
2026-05-08 10:07 30.04987 120.39536 15970 ft 297 kts 246°
2026-05-08 10:08 30.04031 120.37395 16397 ft 309 kts 246°
2026-05-08 10:08 30.03019 120.35121 16527 ft 328 kts 246°
2026-05-08 10:08 30.01950 120.32719 16655 ft 345 kts 245°
2026-05-08 10:08 30.00840 120.30231 16782 ft 362 kts 245°
2026-05-08 10:09 29.99659 120.27592 16909 ft 379 kts 245°
2026-05-08 10:09 29.98410 120.24847 17036 ft 394 kts 244°
2026-05-08 10:09 29.97089 120.22026 17258 ft 404 kts 244°
2026-05-08 10:09 29.95732 120.19174 17692 ft 407 kts 244°
2026-05-08 10:10 29.94357 120.16308 18138 ft 410 kts 243°
2026-05-08 10:10 29.92972 120.13424 18538 ft 412 kts 244°
2026-05-08 10:10 29.91584 120.10527 18961 ft 414 kts 244°
2026-05-08 10:10 29.90215 120.07656 19319 ft 415 kts 244°
2026-05-08 10:11 29.88824 120.04721 19724 ft 418 kts 244°
2026-05-08 10:11 29.87429 120.01776 20128 ft 420 kts 244°
2026-05-08 10:11 29.86023 119.98815 20489 ft 422 kts 244°
2026-05-08 10:11 29.84473 119.95931 20844 ft 427 kts 237°
2026-05-08 10:12 29.82616 119.93240 21165 ft 431 kts 235°
2026-05-08 10:12 29.80729 119.90555 21454 ft 432 kts 235°
2026-05-08 10:12 29.78834 119.87866 21700 ft 433 kts 235°
2026-05-08 10:12 29.76934 119.85174 21951 ft 434 kts 235°
2026-05-08 10:13 29.75026 119.82471 22186 ft 436 kts 236°
2026-05-08 10:13 29.73115 119.79754 22479 ft 437 kts 235°
2026-05-08 10:13 29.71226 119.77070 22757 ft 438 kts 236°
2026-05-08 10:13 29.69305 119.74344 22986 ft 440 kts 236°
2026-05-08 10:14 29.67376 119.71613 23339 ft 440 kts 236°
2026-05-08 10:14 29.65537 119.68830 23784 ft 434 kts 242°
2026-05-08 10:14 29.64148 119.65790 24130 ft 427 kts 251°
2026-05-08 10:14 29.63282 119.62554 24500 ft 421 kts 260°
2026-05-08 10:15 29.62930 119.59232 24863 ft 418 kts 269°
2026-05-08 10:15 29.62986 119.55906 25222 ft 416 kts 272°
2026-05-08 10:15 29.62838 119.52639 25614 ft 416 kts 263°
2026-05-08 10:15 29.62113 119.49422 25971 ft 418 kts 252°
2026-05-08 10:16 29.60829 119.46414 26368 ft 422 kts 242°
2026-05-08 10:16 29.59038 119.43730 26743 ft 426 kts 233°
2026-05-08 10:16 29.57049 119.41204 27150 ft 425 kts 233°
2026-05-08 10:16 29.55067 119.38689 27575 ft 424 kts 233°
2026-05-08 10:17 29.53088 119.36174 27757 ft 424 kts 233°
2026-05-08 10:17 29.51103 119.33645 27805 ft 430 kts 233°
2026-05-08 10:17 29.49119 119.31108 27794 ft 435 kts 233°
2026-05-08 10:17 29.47092 119.28526 27798 ft 436 kts 233°
2026-05-08 10:18 29.45058 119.25941 27794 ft 437 kts 233°
2026-05-08 10:18 29.43023 119.23351 27766 ft 437 kts 233°
2026-05-08 10:18 29.40984 119.20762 27792 ft 438 kts 233°
2026-05-08 10:18 29.38939 119.18173 27793 ft 438 kts 233°
2026-05-08 10:19 29.36894 119.15586 27792 ft 438 kts 233°
2026-05-08 10:19 29.34847 119.12997 27792 ft 438 kts 233°
2026-05-08 10:19 29.32801 119.10412 27791 ft 438 kts 233°
2026-05-08 10:20 29.28733 119.05279 27792 ft 438 kts 233°
2026-05-08 10:20 29.26691 119.02701 27793 ft 438 kts 233°
2026-05-08 10:20 29.24647 119.00122 27786 ft 437 kts 233°
2026-05-08 10:20 29.22602 118.97543 27771 ft 437 kts 233°
2026-05-08 10:21 29.20556 118.94969 27764 ft 437 kts 233°
2026-05-08 10:21 29.18512 118.92401 27766 ft 437 kts 233°
2026-05-08 10:21 29.16463 118.89829 27758 ft 437 kts 233°
2026-05-08 10:21 29.14416 118.87260 27766 ft 438 kts 233°
2026-05-08 10:22 29.12392 118.84718 27755 ft 437 kts 233°
2026-05-08 10:22 29.10343 118.82145 27759 ft 438 kts 233°
2026-05-08 10:22 29.08288 118.79570 27763 ft 438 kts 232°
2026-05-08 10:22 29.06231 118.76996 27756 ft 438 kts 233°
2026-05-08 10:23 29.04174 118.74427 27725 ft 438 kts 232°
2026-05-08 10:23 29.02119 118.71859 27730 ft 438 kts 232°
2026-05-08 10:23 29.00061 118.69285 27729 ft 439 kts 232°
2026-05-08 10:23 28.98002 118.66712 27735 ft 439 kts 232°
2026-05-08 10:24 28.95938 118.64137 27748 ft 439 kts 232°
2026-05-08 10:24 28.93900 118.61601 27748 ft 439 kts 232°
2026-05-08 10:24 28.91834 118.59033 27741 ft 439 kts 232°
2026-05-08 10:24 28.89766 118.56464 27743 ft 440 kts 232°
2026-05-08 10:25 28.87700 118.53894 27742 ft 439 kts 232°
2026-05-08 10:25 28.85632 118.51322 27744 ft 439 kts 232°
2026-05-08 10:25 28.83566 118.48753 27714 ft 440 kts 232°
2026-05-08 10:25 28.81497 118.46180 27714 ft 440 kts 232°
2026-05-08 10:26 28.79428 118.43610 27717 ft 440 kts 232°
2026-05-08 10:26 28.77357 118.41039 27722 ft 440 kts 232°
2026-05-08 10:26 28.75315 118.38504 27719 ft 440 kts 232°
2026-05-08 10:26 28.73244 118.35935 27725 ft 440 kts 232°
2026-05-08 10:27 28.71171 118.33366 27726 ft 441 kts 232°
2026-05-08 10:27 28.69094 118.30794 27727 ft 441 kts 232°
2026-05-08 10:27 28.67018 118.28223 27728 ft 441 kts 232°
2026-05-08 10:27 28.64937 118.25649 27725 ft 442 kts 232°
2026-05-08 10:28 28.62854 118.23076 27709 ft 442 kts 231°
2026-05-08 10:28 28.60799 118.20543 27716 ft 442 kts 231°
2026-05-08 10:28 28.58712 118.17973 27717 ft 442 kts 232°
2026-05-08 10:28 28.56628 118.15402 27721 ft 442 kts 232°
2026-05-08 10:29 28.54544 118.12831 27714 ft 442 kts 232°
2026-05-08 10:29 28.52461 118.10261 27723 ft 442 kts 231°
2026-05-08 10:29 28.50374 118.07693 27727 ft 442 kts 231°
2026-05-08 10:29 28.48282 118.05125 27717 ft 443 kts 231°
2026-05-08 10:30 28.46188 118.02554 27701 ft 443 kts 231°
2026-05-08 10:30 28.44094 117.99984 27715 ft 443 kts 231°
2026-05-08 10:30 28.42027 117.97447 27708 ft 444 kts 231°
2026-05-08 10:30 28.39920 117.94883 27717 ft 444 kts 231°
2026-05-08 10:31 28.37785 117.92339 27717 ft 445 kts 230°
2026-05-08 10:31 28.35633 117.89808 27718 ft 445 kts 230°
2026-05-08 10:31 28.33474 117.87286 27719 ft 446 kts 230°
2026-05-08 10:31 28.31313 117.84761 27719 ft 446 kts 230°
2026-05-08 10:32 28.29155 117.82235 27723 ft 446 kts 230°
2026-05-08 10:32 28.27000 117.79702 27719 ft 446 kts 230°
2026-05-08 10:32 28.24877 117.77199 27720 ft 446 kts 230°
2026-05-08 10:32 28.22729 117.74664 27720 ft 446 kts 230°
2026-05-08 10:33 28.20577 117.72128 27722 ft 446 kts 230°
2026-05-08 10:33 28.18426 117.69597 27717 ft 446 kts 230°
2026-05-08 10:33 28.16273 117.67062 27718 ft 446 kts 230°
2026-05-08 10:33 28.14118 117.64531 27718 ft 446 kts 230°
2026-05-08 10:34 28.11965 117.62001 27717 ft 446 kts 230°
2026-05-08 10:34 28.09808 117.59473 27716 ft 446 kts 230°
2026-05-08 10:34 28.07650 117.56947 27715 ft 446 kts 230°
2026-05-08 10:34 28.05522 117.54451 27715 ft 447 kts 230°
2026-05-08 10:35 28.03365 117.51923 27712 ft 446 kts 230°
2026-05-08 10:35 28.01209 117.49401 27682 ft 446 kts 230°
2026-05-08 10:35 27.99048 117.46875 27697 ft 447 kts 230°
2026-05-08 10:35 27.96887 117.44350 27700 ft 447 kts 230°
2026-05-08 10:36 27.94725 117.41820 27706 ft 447 kts 230°
2026-05-08 10:36 27.92561 117.39290 27687 ft 446 kts 230°
2026-05-08 10:36 27.90401 117.36772 27694 ft 446 kts 230°
2026-05-08 10:36 27.88241 117.34252 27713 ft 448 kts 230°
2026-05-08 10:37 27.86100 117.31752 27712 ft 449 kts 231°
2026-05-08 10:37 27.83929 117.29217 27705 ft 449 kts 230°
2026-05-08 10:37 27.81755 117.26683 27703 ft 449 kts 230°
2026-05-08 10:37 27.79580 117.24156 27678 ft 449 kts 230°
2026-05-08 10:38 27.77401 117.21629 27684 ft 449 kts 230°
2026-05-08 10:38 27.75223 117.19103 27676 ft 449 kts 230°
2026-05-08 10:38 27.73043 117.16576 27676 ft 449 kts 230°
2026-05-08 10:38 27.70869 117.14055 27679 ft 449 kts 230°
2026-05-08 10:39 27.68722 117.11562 27682 ft 449 kts 230°
2026-05-08 10:39 27.66546 117.09035 27676 ft 449 kts 230°
2026-05-08 10:39 27.64366 117.06506 27674 ft 449 kts 230°
2026-05-08 10:39 27.62186 117.03981 27675 ft 449 kts 230°
2026-05-08 10:40 27.60006 117.01459 27676 ft 449 kts 230°
2026-05-08 10:40 27.57822 116.98935 27657 ft 450 kts 230°
2026-05-08 10:40 27.55638 116.96412 27649 ft 449 kts 230°
2026-05-08 10:40 27.53452 116.93890 27676 ft 450 kts 230°
2026-05-08 10:41 27.51292 116.91397 27682 ft 451 kts 230°
2026-05-08 10:41 27.49111 116.88861 27680 ft 451 kts 230°
2026-05-08 10:41 27.46939 116.86317 27682 ft 450 kts 231°
2026-05-08 10:41 27.44772 116.83769 27682 ft 450 kts 231°
2026-05-08 10:42 27.42611 116.81224 27684 ft 450 kts 231°
2026-05-08 10:42 27.40446 116.78681 27680 ft 450 kts 231°
2026-05-08 10:42 27.38276 116.76146 27679 ft 450 kts 231°
2026-05-08 10:42 27.36105 116.73613 27664 ft 450 kts 231°
2026-05-08 10:43 27.33962 116.71116 27671 ft 450 kts 231°
2026-05-08 10:43 27.31791 116.68589 27671 ft 449 kts 231°
2026-05-08 10:43 27.29619 116.66058 27673 ft 450 kts 231°
2026-05-08 10:43 27.27448 116.63525 27661 ft 450 kts 231°
2026-05-08 10:44 27.25275 116.60996 27669 ft 449 kts 231°
2026-05-08 10:44 27.23103 116.58472 27669 ft 449 kts 230°
2026-05-08 10:44 27.20931 116.55951 27672 ft 449 kts 230°
2026-05-08 10:44 27.18773 116.53414 27675 ft 449 kts 231°
2026-05-08 10:45 27.16671 116.50888 27672 ft 448 kts 232°
2026-05-08 10:45 27.14562 116.48312 27660 ft 448 kts 232°
2026-05-08 10:45 27.12459 116.45726 27664 ft 448 kts 232°
2026-05-08 10:45 27.10355 116.43142 27669 ft 448 kts 232°
2026-05-08 10:46 27.08242 116.40566 27670 ft 449 kts 232°
2026-05-08 10:46 27.06120 116.37997 27676 ft 449 kts 232°
2026-05-08 10:46 27.03990 116.35433 27678 ft 449 kts 232°
2026-05-08 10:46 27.01860 116.32875 27675 ft 449 kts 231°
2026-05-08 10:47 26.99729 116.30313 27674 ft 449 kts 232°
2026-05-08 10:47 26.97629 116.27782 27674 ft 449 kts 232°
2026-05-08 10:47 26.95501 116.25220 27664 ft 449 kts 232°
2026-05-08 10:47 26.93374 116.22657 27651 ft 450 kts 232°
2026-05-08 10:48 26.91244 116.20087 27662 ft 450 kts 232°
2026-05-08 10:48 26.89124 116.17508 27657 ft 450 kts 232°
2026-05-08 10:48 26.87011 116.14925 27662 ft 450 kts 232°
2026-05-08 10:48 26.84895 116.12339 27674 ft 451 kts 232°
2026-05-08 10:49 26.82776 116.09751 27671 ft 451 kts 232°
2026-05-08 10:49 26.80682 116.07200 27669 ft 451 kts 232°
2026-05-08 10:49 26.78555 116.04623 27667 ft 451 kts 232°
2026-05-08 10:49 26.76425 116.02046 27669 ft 451 kts 232°
2026-05-08 10:50 26.74298 115.99466 27675 ft 451 kts 232°
2026-05-08 10:50 26.72172 115.96884 27646 ft 451 kts 232°
2026-05-08 10:50 26.70041 115.94303 27658 ft 452 kts 232°
2026-05-08 10:50 26.67908 115.91723 27661 ft 452 kts 232°
2026-05-08 10:51 26.65775 115.89147 27664 ft 452 kts 232°
2026-05-08 10:51 26.63668 115.86603 27669 ft 452 kts 232°
2026-05-08 10:51 26.61534 115.84025 27669 ft 452 kts 232°
2026-05-08 10:51 26.59405 115.81449 27671 ft 452 kts 232°
2026-05-08 10:52 26.57275 115.78869 27671 ft 451 kts 232°
2026-05-08 10:52 26.55147 115.76291 27679 ft 452 kts 232°
2026-05-08 10:52 26.53017 115.73716 27665 ft 451 kts 232°
2026-05-08 10:52 26.50888 115.71148 27668 ft 451 kts 232°
2026-05-08 10:53 26.48783 115.68613 27664 ft 452 kts 232°
2026-05-08 10:53 26.46638 115.66036 27667 ft 453 kts 232°
2026-05-08 10:53 26.44494 115.63463 27673 ft 453 kts 232°
2026-05-08 10:53 26.42347 115.60887 27679 ft 453 kts 232°
2026-05-08 10:54 26.40203 115.58312 27668 ft 453 kts 232°
2026-05-08 10:54 26.38061 115.55737 27668 ft 453 kts 232°
2026-05-08 10:54 26.35919 115.53159 27666 ft 453 kts 232°
2026-05-08 10:54 26.33777 115.50582 27674 ft 453 kts 232°
2026-05-08 10:55 26.31635 115.48009 27681 ft 453 kts 232°
2026-05-08 10:55 26.29492 115.45438 27672 ft 453 kts 232°
2026-05-08 10:55 26.27372 115.42898 27646 ft 453 kts 231°
2026-05-08 10:55 26.25225 115.40326 27650 ft 453 kts 231°
2026-05-08 10:56 26.23076 115.37754 27663 ft 454 kts 231°
2026-05-08 10:56 26.20926 115.35185 27663 ft 454 kts 231°
2026-05-08 10:56 26.18772 115.32610 27668 ft 454 kts 232°
2026-05-08 10:56 26.16622 115.30038 27667 ft 454 kts 232°
2026-05-08 10:57 26.14471 115.27467 27667 ft 454 kts 232°
2026-05-08 10:57 26.12320 115.24899 27672 ft 454 kts 231°
2026-05-08 10:57 26.08041 115.19801 27670 ft 454 kts 231°
2026-05-08 10:58 26.05887 115.17240 27670 ft 453 kts 231°
2026-05-08 10:58 26.03734 115.14678 27671 ft 454 kts 231°
2026-05-08 10:58 26.01580 115.12113 27677 ft 454 kts 231°
2026-05-08 10:58 25.99427 115.09552 27674 ft 454 kts 231°
2026-05-08 10:59 25.97271 115.06992 27670 ft 454 kts 232°
2026-05-08 10:59 25.95113 115.04429 27671 ft 454 kts 231°
2026-05-08 10:59 25.92956 115.01868 27673 ft 454 kts 231°
2026-05-08 10:59 25.90830 114.99347 27684 ft 454 kts 232°
2026-05-08 11:00 25.88671 114.96787 27674 ft 454 kts 232°
2026-05-08 11:00 25.86514 114.94231 27675 ft 454 kts 232°
2026-05-08 11:00 25.84346 114.91683 27673 ft 455 kts 230°
2026-05-08 11:00 25.81919 114.89399 27656 ft 462 kts 220°
2026-05-08 11:01 25.79127 114.87585 27659 ft 470 kts 210°
2026-05-08 11:01 25.76035 114.86323 27656 ft 478 kts 200°
2026-05-08 11:01 25.72779 114.85501 27660 ft 481 kts 198°
2026-05-08 11:01 25.69556 114.84710 27659 ft 481 kts 198°
2026-05-08 11:02 25.66292 114.83902 27661 ft 481 kts 198°
2026-05-08 11:02 25.59759 114.82275 27656 ft 481 kts 198°
2026-05-08 11:02 25.56493 114.81461 27658 ft 481 kts 198°
2026-05-08 11:03 25.53225 114.80648 27640 ft 482 kts 198°
2026-05-08 11:03 25.49954 114.79835 27648 ft 482 kts 198°
2026-05-08 11:03 25.46682 114.79021 27645 ft 482 kts 198°
2026-05-08 11:03 25.43453 114.78219 27649 ft 482 kts 198°
2026-05-08 11:04 25.40178 114.77408 27652 ft 483 kts 198°
2026-05-08 11:04 25.36899 114.76599 27650 ft 483 kts 198°
2026-05-08 11:04 25.33622 114.75791 27654 ft 483 kts 198°
2026-05-08 11:04 25.30339 114.74982 27654 ft 483 kts 198°
2026-05-08 11:05 25.27057 114.74174 27634 ft 483 kts 198°
2026-05-08 11:05 25.23774 114.73367 27640 ft 484 kts 198°
2026-05-08 11:05 25.20489 114.72558 27644 ft 484 kts 198°
2026-05-08 11:05 25.17203 114.71750 27644 ft 484 kts 198°
2026-05-08 11:06 25.13956 114.70952 27652 ft 484 kts 198°
2026-05-08 11:06 25.10664 114.70144 27649 ft 485 kts 198°
2026-05-08 11:06 25.07375 114.69337 27650 ft 485 kts 198°
2026-05-08 11:06 25.04081 114.68528 27651 ft 485 kts 198°
2026-05-08 11:07 25.00790 114.67718 27649 ft 485 kts 198°
2026-05-08 11:07 24.97498 114.66908 27644 ft 485 kts 198°
2026-05-08 11:07 24.94207 114.66101 27641 ft 485 kts 198°
2026-05-08 11:07 24.90915 114.65294 27639 ft 484 kts 198°
2026-05-08 11:08 24.87673 114.64496 27639 ft 484 kts 198°
2026-05-08 11:08 24.84379 114.63687 27650 ft 485 kts 198°
2026-05-08 11:08 24.81091 114.62881 27645 ft 485 kts 198°
2026-05-08 11:08 24.77800 114.62074 27650 ft 485 kts 198°
2026-05-08 11:09 24.74509 114.61264 27653 ft 485 kts 198°
2026-05-08 11:09 24.71262 114.60345 27414 ft 480 kts 203°
2026-05-08 11:09 24.68192 114.58948 27169 ft 476 kts 211°
2026-05-08 11:09 24.65313 114.57167 26927 ft 475 kts 214°
2026-05-08 11:10 24.62451 114.55348 26685 ft 476 kts 214°
2026-05-08 11:10 24.59617 114.53555 26452 ft 477 kts 214°
2026-05-08 11:10 24.56728 114.51737 26219 ft 478 kts 214°
2026-05-08 11:10 24.53842 114.49924 25981 ft 479 kts 214°
2026-05-08 11:11 24.50947 114.48104 25740 ft 480 kts 214°
2026-05-08 11:11 24.48048 114.46278 25511 ft 481 kts 214°
2026-05-08 11:11 24.45146 114.44448 25264 ft 482 kts 213°
2026-05-08 11:11 24.42233 114.42610 25041 ft 483 kts 213°
2026-05-08 11:12 24.39350 114.40791 24817 ft 484 kts 213°
2026-05-08 11:12 24.36427 114.38952 24584 ft 485 kts 213°
2026-05-08 11:12 24.33498 114.37119 24367 ft 484 kts 213°
2026-05-08 11:12 24.31119 114.35633 24180 ft 484 kts 213°
2026-05-08 11:13 24.27940 114.33650 23938 ft 483 kts 213°
2026-05-08 11:13 24.25025 114.31829 23718 ft 481 kts 213°
2026-05-08 11:13 24.22122 114.30014 23483 ft 480 kts 213°
2026-05-08 11:13 24.19263 114.28228 23208 ft 479 kts 213°
2026-05-08 11:14 24.16372 114.26423 22947 ft 478 kts 212°
2026-05-08 11:14 24.13495 114.24618 22691 ft 475 kts 214°
2026-05-08 11:14 24.10799 114.22552 22438 ft 470 kts 222°
2026-05-08 11:14 24.08454 114.20103 22174 ft 464 kts 231°
2026-05-08 11:15 24.06495 114.17326 21925 ft 459 kts 239°
2026-05-08 11:15 24.04918 114.14304 21679 ft 456 kts 244°
2026-05-08 11:15 24.03444 114.11239 21438 ft 455 kts 244°
2026-05-08 11:15 24.01989 114.08228 21205 ft 453 kts 244°
2026-05-08 11:16 24.00516 114.05191 20952 ft 451 kts 244°
2026-05-08 11:16 23.99045 114.02167 20716 ft 449 kts 244°
2026-05-08 11:16 23.97583 113.99157 20477 ft 448 kts 244°
2026-05-08 11:16 23.96125 113.96151 20231 ft 447 kts 244°
2026-05-08 11:17 23.94666 113.93150 20001 ft 446 kts 244°
2026-05-08 11:17 23.93210 113.90160 19776 ft 445 kts 244°
2026-05-08 11:17 23.91760 113.87185 19536 ft 443 kts 244°
2026-05-08 11:17 23.90338 113.84257 19312 ft 441 kts 244°
2026-05-08 11:18 23.88903 113.81301 19086 ft 440 kts 244°
2026-05-08 11:18 23.87473 113.78358 18862 ft 438 kts 243°
2026-05-08 11:18 23.86048 113.75428 18632 ft 436 kts 243°
2026-05-08 11:18 23.84624 113.72505 18414 ft 436 kts 243°
2026-05-08 11:19 23.83201 113.69587 18174 ft 435 kts 243°
2026-05-08 11:19 23.81771 113.66685 17919 ft 434 kts 241°
2026-05-08 11:19 23.80068 113.63972 17664 ft 434 kts 232°
2026-05-08 11:19 23.78033 113.61602 17414 ft 434 kts 224°
2026-05-08 11:20 23.75665 113.59563 17162 ft 435 kts 216°
2026-05-08 11:20 23.73105 113.57811 16896 ft 434 kts 214°
2026-05-08 11:20 23.70539 113.56070 16650 ft 433 kts 214°
2026-05-08 11:20 23.67984 113.54332 16406 ft 432 kts 214°
2026-05-08 11:21 23.65435 113.52599 16165 ft 431 kts 214°
2026-05-08 11:21 23.62896 113.50872 15918 ft 429 kts 214°
2026-05-08 11:21 23.60328 113.49218 15678 ft 429 kts 208°
2026-05-08 11:21 23.57697 113.48047 15453 ft 430 kts 199°
2026-05-08 11:22 23.54800 113.47228 15127 ft 429 kts 196°
2026-05-08 11:22 23.51906 113.46453 14209 ft 428 kts 195°
2026-05-08 11:22 23.49019 113.45677 13349 ft 426 kts 195°
2026-05-08 11:22 23.46166 113.44908 12538 ft 421 kts 195°
2026-05-08 11:23 23.43337 113.44140 11877 ft 415 kts 195°
2026-05-08 11:23 23.40533 113.43380 11133 ft 412 kts 195°
2026-05-08 11:23 23.37820 113.42645 11002 ft 391 kts 195°
2026-05-08 11:23 23.35252 113.41953 10882 ft 370 kts 195°
2026-05-08 11:24 23.32844 113.41303 10767 ft 353 kts 195°
2026-05-08 11:24 23.30515 113.40671 10649 ft 337 kts 196°
2026-05-08 11:24 23.28283 113.40064 10533 ft 324 kts 196°
2026-05-08 11:24 23.26134 113.39477 10416 ft 312 kts 196°
2026-05-08 11:25 23.24065 113.38913 10269 ft 302 kts 196°
2026-05-08 11:25 23.22045 113.38365 10105 ft 295 kts 196°
2026-05-08 11:25 23.20053 113.37826 10034 ft 295 kts 195°
2026-05-08 11:25 23.18058 113.37289 9895 ft 296 kts 195°
2026-05-08 11:26 23.16053 113.36749 9148 ft 307 kts 195°
2026-05-08 11:26 23.13941 113.36176 8407 ft 317 kts 195°
2026-05-08 11:26 23.11833 113.35555 8159 ft 308 kts 203°
2026-05-08 11:26 23.10106 113.34313 8029 ft 294 kts 229°
2026-05-08 11:27 23.09077 113.32446 7603 ft 291 kts 254°
2026-05-08 11:27 23.08865 113.30244 7002 ft 297 kts 270°
2026-05-08 11:27 23.08893 113.27976 6427 ft 303 kts 276°
2026-05-08 11:27 23.09609 113.25872 5829 ft 307 kts 307°
2026-05-08 11:28 23.11252 113.24425 5253 ft 309 kts 336°
2026-05-08 11:28 23.13366 113.24073 4625 ft 311 kts
2026-05-08 11:28 23.15396 113.24804 4208 ft 306 kts 22°
2026-05-08 11:28 23.17384 113.25536 3816 ft 295 kts 15°
2026-05-08 11:29 23.19321 113.26041 3450 ft 278 kts 14°
2026-05-08 11:29 23.21154 113.26509 3116 ft 263 kts 14°
2026-05-08 11:29 23.22829 113.26957 2788 ft 237 kts 15°
2026-05-08 11:29 23.24339 113.27365 2494 ft 211 kts 16°
2026-05-08 11:30 23.25689 113.27729 2240 ft 190 kts 16°
2026-05-08 11:30 23.26894 113.28053 2021 ft 167 kts 17°
2026-05-08 11:30 23.27943 113.28336 1815 ft 146 kts 16°
2026-05-08 11:30 23.28889 113.28592 1627 ft 137 kts 16°
2026-05-08 11:31 23.29801 113.28839 1448 ft 134 kts 16°
2026-05-08 11:31 23.30698 113.29081 1272 ft 132 kts 15°
2026-05-08 11:31 23.31587 113.29321 1105 ft 131 kts 15°
2026-05-08 11:31 23.32473 113.29561 954 ft 131 kts 14°
2026-05-08 11:32 23.33355 113.29800 810 ft 134 kts 15°
2026-05-08 11:32 23.34264 113.30050 640 ft 137 kts 13°
2026-05-08 11:32 23.35189 113.30299 400 ft 137 kts 13°
2026-05-08 11:32 23.36109 113.30545 243 ft 137 kts 13°
2026-05-08 11:33 23.37036 113.30792 102 ft 137 kts 12°
2026-05-08 11:33 23.37907 113.31018 52 ft 106 kts 13°
2026-05-08 11:33 23.38350 113.31139 54 ft 42 kts 14°
2026-05-08 11:33 23.38635 113.31210 55 ft 38 kts
2026-05-08 11:34 23.38858 113.31151 54 ft 26 kts 341°
2026-05-08 11:34 23.39036 113.31128 52 ft 26 kts
2026-05-08 11:34 23.39123 113.31064 51 ft 16 kts 288°
2026-05-08 11:34 23.39152 113.30936 55 ft 19 kts 283°
2026-05-08 11:35 23.39171 113.30786 57 ft 21 kts 248°
2026-05-08 11:35 23.39054 113.30736 57 ft 20 kts 193°
2026-05-08 11:35 23.38935 113.30673 52 ft 16 kts 264°
2026-05-08 11:35 23.38963 113.30549 58 ft 16 kts 285°
2026-05-08 11:36 23.38994 113.30420 53 ft 19 kts 282°
2026-05-08 11:36 23.39035 113.30346 54 ft 6 kts 14°
2026-05-08 11:36 23.39046 113.30347 56 ft 2 kts 10°
2026-05-08 11:36 23.39068 113.30353 56 ft 5 kts 14°
2026-05-08 11:37 23.39078 113.30356 52 ft 2 kts 14°